Location: Byszew
(52.1813°N, 19.2693°E)
Time: 21:44:16
(UTC+00:00)

Sich 1 - Pass Details

Date: 03 March 2021
Orbit: 593 x 626 km, 82.5° (Epoch: 15 April)

Event Time Altitude Azimuth Distance (km) Brightness Sun altitude
Rises 17:29:24 0° 206° (SSW) 2,881 6.8 -10.5°
Reaches altitude 10° 17:31:41 10° 213° (SSW) 1,985 6.1 -10.8°
Maximum altitude 17:35:55 45° 287° (WNW) 855 4.3 -11.5°
Drops below altitude 10° 17:40:12 10° 0° (N) 2,012 5.7 -12.1°
Sets 17:42:32 0° 7° (N) 2,926 6.5 -12.5°
